Pian Rosa, Italy

7:31 AM CET on February 28, 2017 (GMT +0100)
Pian Rosa

Weather History for LIMH - October, 2011

Change the Weather History Date:

Thursday, October 27, 2011

  Actual Average Record
Temperature  
Mean Temperature 24 °F -  
Max Temperature 27 °F 24 °F 39 °F (2005)
Min Temperature 20 °F 14 °F 5 °F (2012)
Degree Days  
Heating Degree Days 42    
Moisture  
Dew Point -8 °F    
Average Humidity 24    
Maximum Humidity 64    
Minimum Humidity 4    
Precipitation  
Precipitation 0.00 in - - ()
Sea Level Pressure  
Sea Level Pressure 30.15 in    
Wind  
Wind Speed 20 mph ()    
Max Wind Speed 32 mph    
Max Gust Speed -    
Visibility 7.2 miles    
Events      
Averages and records for this station are not official NWS values.
T = Trace of Precipitation, MM = Missing Value Source: Averaged Metar Reports

Daily Weather History Graph

Daily Weather History Graph

Search for Another Location

Airport or City:

Trip Planner

Search our weather history database for the weather conditions in past years. The results will help you decide how hot, cold, wet, or windy it might be!

Date:

Astronomy

Oct. 27, 2011 Rise Set
Actual Time 8:01 AM CEST 6:23 PM CEST
Civil Twilight 7:31 AM CEST 6:54 PM CEST
Nautical Twilight 6:56 AM CEST 7:29 PM CEST
Astronomical Twilight 6:21 AM CEST 8:03 PM CEST
Moon 8:50 AM CEST (10/27) 6:32 PM CEST (10/27)
Length of Visible Light 11h 23m
Length of Day
10h 21m
New Moon, 1% of the Moon is Illuminated
Oct 27
New Moon
Nov 2
First Quarter
Nov 10
Full
Nov 18
Last Quarter
Nov 25
New

Hourly Weather History & Observations

Time (CEST) Temp. Windchill Dew Point Humidity Pressure Visibility Wind Dir Wind Speed Gust Speed Precip Events Conditions
12:55 AM 21.2 °F 6.8 °F -22.0 °F 14% 30.09 in - SW 17.3 mph - N/A   Clear
1:55 AM 21.2 °F 7.3 °F -22.0 °F 14% 30.09 in - SW 16.1 mph - N/A   Clear
2:00 AM 22 °F - -22 °F 4%  in 7 mi SW 16.1 mph - -  
2:55 AM 23.0 °F 8.3 °F -22.0 °F 13% 30.12 in - SW 19.6 mph - N/A   Clear
4:55 AM 26.6 °F 12.0 °F -18.4 °F 13% 30.12 in - SSW 23.0 mph - N/A   Clear
5:00 AM 26 °F - -18 °F 5%  in 7 mi SSW 23.0 mph - -  
5:55 AM 28.4 °F 13.5 °F -16.6 °F 13% 30.12 in - South 26.5 mph - N/A   Clear
6:55 AM 28.4 °F 13.0 °F -20.2 °F 11% 30.09 in - SSW 28.8 mph - N/A   Clear
7:55 AM 26.6 °F 10.3 °F -22.0 °F 11% 30.09 in - SSW 29.9 mph - N/A   Clear
8:00 AM 27 °F - -22 °F 4%  in 31 mi SSW 29.9 mph - -   Clear
8:55 AM 26.6 °F 11.4 °F -18.4 °F 13% 30.12 in 6.2 mi SSW 25.3 mph - N/A   Mostly Cloudy
9:55 AM 26.6 °F 12.7 °F -16.6 °F 14% 30.15 in 6.2 mi South 20.7 mph - N/A   Mostly Cloudy
10:55 AM 26.6 °F 13.4 °F -11.2 °F 19% 30.15 in 6.2 mi South 18.4 mph - N/A   Mostly Cloudy
11:00 AM 26 °F - -10 °F 8%  in 31 mi South 18.4 mph - -   Mostly Cloudy
11:55 AM 26.6 °F 10.3 °F 3.2 °F 37% 30.15 in 6.2 mi SSW 29.9 mph - N/A   Mostly Cloudy
12:55 PM 26.6 °F 9.8 °F 5.0 °F 40% 30.15 in 6.2 mi SSW 32.2 mph - N/A   Mostly Cloudy
2:55 PM 26.6 °F 12.4 °F 15.8 °F 64% 30.15 in 6.2 mi SSW 21.9 mph - N/A   Mostly Cloudy
4:55 PM 26.6 °F 10.3 °F 10.4 °F 51% 30.18 in 6.2 mi South 29.9 mph - N/A   Mostly Cloudy
5:00 PM 27 °F - 10 °F 35%  in 31 mi South 29.9 mph - -   Mostly Cloudy
5:55 PM 26.6 °F 10.6 °F 8.6 °F 47% 30.18 in 6.2 mi SSW 28.8 mph - N/A   Mostly Cloudy
6:55 PM 26.6 °F 11.4 °F 10.4 °F 51% 30.18 in 6.2 mi SSW 25.3 mph - N/A   Mostly Cloudy
7:55 PM 26.6 °F 11.4 °F 8.6 °F 47% 30.18 in 6.2 mi SSW 25.3 mph - N/A   Scattered Clouds
8:00 PM 26 °F - 9 °F 34%  in 19 mi SSW 25.3 mph - -   Partly Cloudy
8:55 PM 24.8 °F 9.6 °F 1.4 °F 36% 30.21 in 6.2 mi SSW 23.0 mph - N/A   Partly Cloudy
9:55 PM 26.6 °F 11.1 °F -5.8 °F 24% 30.21 in - South 26.5 mph - N/A   Clear
10:55 PM 26.6 °F 11.7 °F -9.4 °F 21% 30.24 in - SSW 24.2 mph - N/A   Clear
11:00 PM 27 °F - -10 °F 8%  in 7 mi SSW 24.2 mph - -  
11:55 PM 26.6 °F 12.0 °F -14.8 °F 16% 30.24 in - South 23.0 mph - N/A   Clear